Temp
57 57 57 57 55 54 50 40 31 39 41 31 28 24 30 40 38 38 37 36 33 29 27 24 24 27 29 33 31 29 27 19 14 17 13 14 14 19 17 22 17 10 14 25
56 56 57 56 55 54 44 34 31 40 39 23 23 28 32 35 36 36 35 35 36 33 28 26 28 29 35 33 31 28 30 20 12 16 16 17 15 14 13 9 9 12 19 31
56 56 56 56 55 54 44 32 28 33 33 28 26 25 30 32 38 38 38 36 35 30 29 30 26 28 32 33 34 42 35 18 22 24 22 16 11 13 16 19 14 19 28 36
55 56 56 56 55 54 47 33 27 31 27 29 27 30 32 32 32 36 37 34 34 31 26 29 27 28 27 30 35 30 27 21 19 20 21 20 19 17 17 20 27 24 34 33
55 55 56 56 55 54 44 34 30 24 25 31 30 31 26 29 33 32 31 30 32 33 34 34 26 29 27 31 26 25 19 20 19 19 20 24 23 23 21 23 27 28 32 31
54 54 54 55 55 52 42 44 40 34 31 26 27 29 32 31 37 37 43 37 34 30 35 42 41 38 35 35 31 26 22 22 20 24 20 21 21 26 28 28 28 31 24 34
52 52 52 54 55 52 47 44 40 33 30 30 30 35 32 33 35 35 39 40 32 36 40 38 36 35 32 32 28 32 17 19 25 21 21 15 31 25 33 31 33 30 35 40
48 48 49 51 53 53 48 44 39 32 31 35 33 33 34 34 37 36 37 40 41 42 35 30 27 27 28 30 32 27 32 27 23 21 20 26 30 28 25 27 31 35 31 35
50 48 48 48 50 52 48 43 41 33 32 33 38 35 35 32 29 31 35 43 43 37 32 28 22 20 19 19 26 32 29 33 25 23 19 16 32 27 19 26 25 33 36 36
50 50 50 49 48 48 45 41 42 34 30 34 38 32 32 36 35 28 29 35 33 36 29 25 24 23 26 18 18 23 24 24 22 23 21 23 26 19 20 21 27 27 33 37
49 49 49 49 49 48 44 39 42 35 32 34 38 40 34 33 35 30 32 31 31 30 26 25 26 25 23 20 20 21 24 23 22 24 21 18 23 25 27 25 18 16 17 22
49 49 48 48 49 49 46 39 42 41 33 33 38 40 40 40 40 35 33 32 32 31 28 29 29 27 25 25 21 17 23 27 23 26 26 26 20 18 15 12 22 21 20 16
48 49 49 49 49 49 44 39 40 37 32 32 32 33 39 41 41 43 33 32 35 33 33 30 28 26 28 25 26 16 20 26 28 29 26 26 28 20 21 18 22 19 18 20
47 49 49 49 49 47 44 38 40 37 32 24 27 37 33 34 35 39 39 37 34 33 32 29 27 24 29 23 23 24 25 28 26 26 23 26 22 18 17 17 25 25 26 28
47 48 48 49 48 47 38 35 37 39 31 21 17 25 27 28 30 31 32 34 32 32 29 27 25 28 27 25 25 23 10 9 19 19 9 9 16 14 12 13 17 17 17 20
47 47 47 48 46 42 33 23 33 39 38 23 11 15 18 21 24 24 25 26 31 32 29 27 28 28 27 22 19 3 4 5 4 5 4 6 8 10 10 9 11 13 14 14
46 46 47 46 44 36 26 24 34 40 38 24 15 10 16 16 19 17 17 23 20 26 25 24 23 24 28 22 16 -1 1 2 2 3 2 7 8 4 7 9 9 12 12 11
46 46 46 45 44 40 31 30 33 36 28 21 14 6 12 13 11 10 9 10 19 21 15 13 12 13 13 -2 -3 -1 -0 -1 -1 -0 0 1 3 5 7 8 8 7 9 7
46 45 43 34 30 26 27 34 31 24 21 10 6 -1 2 13 9 5 10 8 6 8 8 7 10 -5 -12 -8 -6 -5 -4 -7 -5 -3 -2 0 -1 0 2 3 4 3 5 4
42 31 22 14 24 33 31 22 17 13 10 11 3 0 -1 5 7 6 5 4 1 4 1 5 -3 -7 -3 -4 -6 -9 -9 -8 -9 -11 -8 -8 -7 -5 -4 -4 0 0 1 1
22 14 15 21 29 20 10 1 2 0 -2 0 -2 -3 -3 7 1 0 4 6 7 4 0 2 -9 -10 -6 -5 -9 -12 -14 -15 -14 -9 -7 -7 -7 -7 -7 -5 -1 -3 -2 -1
25 17 13 10 5 3 2 -12 -4 -3 -6 -3 -6 -3 -3 -0 -2 -2 2 4 7 2 8 -1 -12 -5 -8 -15 -12 -12 -14 -13 -11 -14 -9 -9 -8 -8 -9 -5 -2 -3 -3 -2
11 6 -0 2 -5 -5 -11 -17 -10 -10 -12 -15 -11 -10 -11 -5 -5 -4 -1 1 1 8 -3 -9 -7 -5 -6 -10 -11 -9 -11 -14 -12 -9 -10 -7 -6 -4 -4 -4 -1 -2 -2 -4
0 -3 -6 -12 -16 -18 -15 -13 -14 -9 -17 -19 -23 -19 -14 -20 -10 -5 -8 2 -0 -6 -12 -12 -11 -10 -10 -9 -10 -7 -5 -5 -6 -7 -7 -7 -5 -6 -6 -5 -5 -4 -4 -4
-6 -4 -12 -13 -10 -17 -22 -27 -20 -18 -26 -20 -18 -16 -14 -14 -12 -6 -8 -10 -17 -15 -14 -12 -10 -8 -6 -5 -4 -5 -6 -6 -5 -3 -3 -4 -5 -6 -6 -6 -9 -9 -8 -7
-6 -11 -12 -14 -12 -16 -20 -28 -21 -24 -26 -20 -16 -22 -21 -18 -20 -13 -19 -17 -17 -14 -20 -15 -16 -14 -12 -13 -9 -8 -7 -7 -6 -5 -4 -5 -8 -7 -7 -10 -11 -11 -10 -9
-10 -12 -16 -15 -17 -10 -15 -17 -14 -20 -15 -17 -22 -20 -21 -21 -25 -24 -24 -23 -20 -18 -7 -7 -17 -14 -14 -14 -15 -12 -11 -10 -10 -9 -6 -5 -9 -16 -18 -12 -6 -13 -14 -14
MSLP
1012.81 1013.52 1014.19 1014.95 1015.90 1016.80 1017.72 1018.64 1019.81 1019.98 1019.92 1020.63 1020.84 1020.81 1019.82 1018.70 1018.29 1018.46 1018.52 1018.93 1019.80 1020.82 1021.99 1022.96 1023.64 1023.43 1022.97 1022.82 1023.47 1024.92 1025.63 1027.69 1030.49 1031.50 1032.43 1032.87 1032.54 1032.04 1031.56 1031.58 1031.02 1029.70 1027.49 1021.65
1011.68 1012.56 1013.30 1013.99 1015.05 1015.98 1017.33 1018.47 1019.57 1019.94 1019.78 1020.13 1020.65 1020.34 1019.61 1018.84 1018.33 1018.10 1018.35 1018.71 1019.07 1019.98 1021.03 1022.10 1022.40 1022.30 1022.06 1022.43 1022.90 1023.15 1024.41 1026.69 1029.31 1031.18 1032.45 1032.59 1032.29 1031.34 1030.70 1030.41 1029.11 1027.05 1025.87 1019.84
1010.70 1011.30 1012.24 1013.12 1014.08 1015.02 1016.33 1018.22 1019.45 1020.03 1020.09 1019.48 1019.40 1019.92 1019.38 1018.82 1017.83 1017.72 1017.83 1018.23 1018.82 1019.74 1020.50 1020.91 1021.56 1022.09 1022.21 1022.48 1022.74 1022.85 1023.28 1025.05 1026.05 1026.98 1027.91 1028.79 1030.56 1030.03 1029.59 1028.82 1027.81 1025.27 1021.03 1018.49
1009.27 1010.14 1010.91 1011.91 1013.02 1014.00 1015.02 1016.64 1017.33 1017.33 1018.38 1018.69 1019.11 1018.83 1018.21 1017.90 1017.56 1017.47 1017.50 1018.00 1018.13 1018.85 1019.90 1020.29 1020.88 1021.57 1022.26 1022.69 1022.76 1023.23 1023.85 1024.81 1025.16 1025.38 1025.89 1026.70 1026.98 1026.97 1026.99 1026.57 1024.24 1023.35 1017.58 1018.07
1008.01 1008.58 1009.42 1010.40 1011.80 1013.01 1013.91 1014.77 1015.94 1017.02 1016.95 1016.95 1018.00 1017.96 1016.55 1016.45 1016.73 1016.76 1017.02 1017.18 1017.39 1017.99 1018.03 1017.97 1018.93 1020.13 1021.10 1021.40 1023.05 1023.63 1024.17 1024.17 1024.45 1024.88 1025.19 1025.59 1025.64 1024.03 1023.67 1023.20 1022.55 1020.95 1018.02 1016.15
1006.65 1007.27 1008.46 1009.21 1010.13 1011.48 1011.53 1012.82 1013.74 1014.56 1015.37 1016.22 1016.64 1014.77 1014.60 1014.73 1015.56 1015.34 1014.92 1015.44 1016.64 1016.80 1016.09 1017.06 1017.41 1018.16 1019.33 1019.89 1020.98 1022.60 1023.56 1023.58 1024.09 1023.03 1024.11 1024.64 1023.80 1018.39 1020.36 1020.27 1018.84 1018.27 1017.82 1012.11
1006.48 1006.51 1007.56 1008.00 1008.53 1009.17 1009.72 1011.07 1012.47 1013.89 1013.30 1014.45 1012.55 1013.36 1014.00 1013.88 1013.91 1013.92 1014.25 1015.05 1015.71 1015.85 1015.89 1016.97 1017.83 1018.54 1018.94 1019.67 1020.28 1020.44 1021.75 1022.54 1022.86 1023.03 1023.46 1022.22 1015.65 1016.33 1016.73 1017.07 1016.45 1016.94 1015.55 1013.29
1006.84 1007.11 1006.84 1006.10 1007.08 1008.14 1008.89 1009.91 1010.88 1012.17 1011.91 1012.02 1012.86 1012.64 1013.10 1013.75 1013.82 1013.77 1013.95 1013.88 1013.93 1014.94 1016.24 1017.50 1018.22 1018.57 1019.07 1018.35 1018.99 1019.46 1019.61 1021.10 1021.45 1021.24 1020.48 1018.39 1016.04 1016.07 1016.84 1016.83 1014.43 1014.79 1014.82 1013.85
1006.65 1006.88 1007.02 1007.42 1007.36 1007.41 1007.80 1009.19 1010.38 1011.55 1011.75 1010.65 1010.86 1011.56 1011.90 1012.20 1012.89 1013.74 1013.25 1013.68 1014.00 1014.71 1016.17 1016.86 1016.79 1016.97 1017.17 1017.69 1017.39 1017.22 1018.36 1018.68 1019.50 1019.28 1018.45 1017.46 1012.78 1015.36 1014.71 1015.90 1014.76 1013.81 1013.98 1013.54
1006.61 1006.69 1006.95 1007.33 1007.59 1007.71 1007.52 1008.31 1009.46 1010.62 1010.92 1010.58 1010.59 1010.62 1010.67 1011.38 1011.80 1012.41 1012.75 1013.20 1014.21 1014.83 1015.12 1015.25 1015.27 1015.32 1015.29 1016.32 1016.64 1016.93 1017.36 1017.75 1017.14 1017.12 1016.81 1016.00 1014.66 1015.47 1015.93 1016.65 1014.08 1013.20 1013.37 1013.16
1006.50 1006.87 1006.97 1007.13 1007.49 1007.92 1008.42 1009.63 1009.69 1010.42 1010.91 1010.85 1010.43 1010.33 1010.62 1010.69 1010.76 1011.35 1012.10 1013.09 1013.24 1014.12 1014.17 1014.05 1013.77 1013.77 1013.88 1014.50 1013.97 1014.47 1014.95 1015.84 1015.64 1015.98 1015.94 1015.47 1014.56 1016.50 1016.49 1015.42 1014.87 1014.84 1014.57 1014.19
1006.43 1006.70 1007.04 1007.40 1007.76 1008.11 1008.41 1008.97 1009.17 1010.67 1011.57 1011.50 1010.96 1010.73 1010.53 1010.37 1010.49 1010.97 1011.20 1011.34 1011.64 1012.05 1012.60 1012.64 1012.56 1012.59 1012.77 1012.78 1013.41 1013.67 1013.81 1012.66 1013.56 1013.83 1013.26 1013.69 1014.47 1015.61 1016.16 1016.07 1015.78 1015.47 1015.44 1015.40
1006.90 1007.05 1007.40 1007.82 1007.88 1007.94 1008.43 1009.17 1009.88 1010.83 1011.23 1011.56 1011.48 1011.02 1010.83 1010.64 1010.79 1010.70 1011.17 1011.58 1011.60 1011.52 1011.59 1011.89 1012.12 1012.01 1011.94 1012.21 1012.51 1013.01 1013.58 1013.24 1013.72 1014.30 1014.34 1014.88 1015.49 1016.29 1017.06 1017.13 1016.58 1016.17 1016.13 1015.80
1007.45 1007.41 1007.56 1007.70 1007.90 1008.44 1008.90 1009.79 1010.24 1010.60 1011.18 1011.81 1011.73 1011.19 1011.87 1012.31 1011.38 1011.01 1010.99 1011.44 1011.84 1012.00 1011.86 1011.92 1012.31 1012.64 1012.67 1012.99 1013.52 1014.64 1015.41 1015.34 1016.09 1016.09 1016.27 1016.25 1017.01 1018.39 1019.23 1018.85 1018.11 1017.66 1017.05 1016.07
1007.71 1007.86 1007.97 1008.19 1008.45 1008.90 1009.66 1010.28 1010.64 1010.64 1011.38 1012.38 1012.88 1012.91 1013.69 1013.36 1012.47 1011.94 1011.75 1011.75 1012.18 1012.36 1012.31 1012.17 1012.26 1012.39 1013.16 1013.64 1014.89 1016.88 1018.93 1019.59 1019.33 1019.63 1020.54 1020.47 1019.62 1020.09 1020.70 1020.30 1019.81 1019.10 1018.73 1017.98
1008.21 1008.36 1008.51 1008.62 1009.05 1009.53 1010.26 1011.26 1011.38 1011.04 1011.17 1012.49 1014.16 1015.02 1015.01 1014.48 1013.80 1013.18 1012.90 1012.80 1012.80 1012.64 1012.53 1012.55 1012.50 1012.50 1013.63 1015.26 1017.81 1021.27 1022.46 1023.09 1023.37 1023.10 1023.17 1022.74 1021.90 1021.87 1022.04 1021.74 1021.35 1020.78 1020.03 1019.13
1008.51 1008.61 1008.70 1009.05 1009.53 1009.97 1011.27 1012.50 1011.89 1011.09 1011.17 1012.64 1014.63 1015.92 1016.23 1015.99 1015.23 1014.95 1014.60 1014.02 1013.85 1013.50 1013.59 1013.70 1013.69 1014.03 1014.39 1016.67 1020.69 1024.16 1025.06 1025.59 1025.50 1025.32 1024.89 1023.74 1023.41 1023.50 1023.12 1022.33 1021.70 1021.23 1021.01 1020.68
1008.79 1008.92 1009.23 1009.65 1010.08 1010.78 1011.86 1013.24 1012.29 1011.60 1012.63 1014.50 1017.04 1018.05 1018.27 1018.15 1017.68 1017.09 1016.43 1015.86 1015.05 1014.59 1014.85 1015.13 1015.84 1016.67 1017.63 1021.33 1025.17 1026.26 1026.84 1027.01 1026.88 1027.09 1027.17 1026.35 1025.33 1024.52 1023.92 1023.48 1022.67 1022.25 1021.77 1021.73
1009.38 1009.73 1010.13 1010.62 1011.71 1012.80 1013.76 1013.93 1013.80 1014.16 1015.72 1018.18 1020.69 1022.11 1021.35 1020.44 1019.84 1019.20 1018.12 1017.61 1017.13 1016.76 1016.84 1017.81 1018.48 1021.07 1023.63 1026.49 1027.70 1028.51 1028.88 1029.13 1028.79 1027.96 1027.06 1026.30 1026.10 1025.65 1025.14 1024.56 1023.89 1023.61 1023.14 1022.76
1010.29 1010.70 1012.01 1013.65 1014.50 1014.26 1013.92 1014.77 1015.61 1017.40 1019.68 1021.35 1023.77 1024.19 1023.93 1023.15 1022.11 1020.70 1020.13 1019.03 1018.89 1018.40 1018.99 1019.63 1021.68 1025.09 1027.41 1028.43 1029.14 1029.45 1029.43 1029.22 1028.91 1028.26 1027.41 1026.93 1026.58 1026.39 1025.93 1025.55 1025.14 1024.63 1024.04 1023.69
1011.79 1013.44 1014.94 1015.34 1014.90 1015.17 1016.99 1019.35 1020.97 1022.71 1024.57 1025.49 1026.16 1026.15 1025.91 1024.39 1024.31 1023.19 1021.87 1020.73 1019.87 1019.78 1020.19 1021.33 1024.51 1027.14 1028.77 1029.37 1029.88 1030.04 1029.98 1029.79 1029.65 1029.33 1028.73 1028.27 1027.76 1027.33 1026.73 1026.03 1025.18 1024.80 1024.56 1024.28
1013.52 1014.35 1015.93 1016.68 1018.44 1019.80 1021.66 1024.91 1025.75 1026.80 1028.35 1028.17 1028.05 1027.83 1027.25 1026.15 1025.30 1024.66 1022.65 1021.75 1020.71 1020.57 1021.02 1022.96 1026.35 1028.64 1029.47 1030.15 1030.22 1030.22 1029.98 1029.65 1029.36 1028.79 1028.34 1027.64 1027.17 1026.73 1026.30 1025.79 1025.20 1024.83 1024.71 1024.72
1014.77 1016.52 1019.44 1021.65 1024.30 1025.79 1027.72 1029.62 1030.02 1030.40 1030.33 1030.44 1030.16 1029.71 1029.04 1027.54 1026.68 1025.70 1024.33 1022.89 1021.89 1021.67 1023.00 1025.71 1028.11 1029.20 1029.75 1030.02 1029.91 1029.81 1029.40 1028.99 1028.59 1028.03 1027.47 1027.03 1026.62 1026.29 1026.02 1025.61 1025.22 1024.98 1024.97 1025.13
1018.71 1021.59 1024.79 1027.31 1028.99 1030.18 1031.10 1031.85 1032.21 1031.63 1031.72 1031.86 1031.69 1031.59 1030.97 1029.97 1028.81 1027.14 1025.99 1024.49 1024.09 1024.63 1026.23 1027.93 1029.19 1029.65 1029.82 1029.81 1029.82 1029.62 1029.09 1028.52 1028.09 1027.58 1027.05 1026.71 1026.38 1026.03 1025.74 1025.55 1025.39 1025.27 1025.15 1025.13
1022.50 1024.42 1028.64 1030.18 1030.61 1031.20 1031.93 1033.04 1033.03 1032.25 1032.35 1032.89 1032.66 1032.37 1032.01 1031.26 1030.25 1028.95 1028.08 1027.48 1027.60 1028.25 1028.91 1029.55 1029.78 1029.87 1029.94 1029.83 1029.63 1029.27 1028.80 1028.28 1027.72 1027.09 1026.58 1026.20 1025.88 1025.60 1025.27 1025.07 1025.09 1025.14 1025.24 1025.33
1024.95 1027.82 1030.14 1031.44 1031.82 1032.56 1032.88 1033.57 1033.71 1032.72 1032.81 1033.02 1033.00 1033.54 1032.99 1032.75 1032.40 1031.35 1030.74 1030.60 1030.13 1030.26 1030.04 1029.98 1030.08 1030.00 1029.82 1029.70 1029.46 1028.84 1028.38 1027.92 1027.34 1026.76 1026.20 1025.76 1025.51 1025.31 1025.10 1024.89 1024.86 1024.86 1024.96 1024.99
1027.61 1029.97 1030.16 1030.72 1031.40 1032.03 1032.47 1032.81 1032.86 1032.43 1032.88 1033.33 1033.47 1034.03 1034.23 1033.65 1033.47 1032.95 1032.03 1031.76 1030.88 1030.26 1029.68 1029.52 1029.64 1029.75 1029.47 1029.22 1028.95 1028.50 1028.02 1027.51 1026.95 1026.38 1025.77 1025.22 1024.81 1024.78 1024.82 1024.52 1023.94 1024.09 1024.11 1024.17
Wind_Speed
21 20 20 21 23 23 11 4 3 1 1 4 3 5 7 3 4 3 3 4 4 8 8 6 5 8 5 7 11 10 6 6 5 6 3 2 3 6 5 6 7 3 1 12
23 23 23 24 27 25 6 4 3 1 2 6 5 3 4 3 5 6 7 8 5 3 8 3 7 7 0 10 9 11 11 2 4 6 4 3 5 6 4 4 3 10 5 10
24 24 25 25 29 28 6 4 4 1 2 1 4 5 5 5 5 4 4 4 5 4 4 4 7 7 1 6 6 3 6 4 9 10 8 8 6 7 7 5 4 6 21 20
25 26 27 30 32 29 8 4 6 6 8 9 7 8 8 12 9 5 5 4 8 9 6 4 6 4 1 1 4 3 5 7 5 4 5 4 7 7 15 20 21 12 26 21
29 29 29 31 33 32 9 7 6 2 3 6 18 13 11 12 9 10 7 7 10 7 14 12 10 9 4 7 4 5 1 4 3 4 4 5 7 16 16 22 16 26 28 31
24 30 25 31 34 28 6 5 3 7 10 6 11 12 19 20 15 8 16 18 8 14 21 16 5 6 4 5 11 12 8 6 4 21 6 5 11 29 22 19 19 20 22 40
10 15 32 33 36 36 7 4 5 6 13 13 21 18 18 22 23 24 10 12 9 6 9 7 7 3 4 6 8 8 8 6 4 5 4 10 15 1 13 26 27 23 26 32
2 6 3 13 31 34 12 3 5 5 13 15 14 19 14 10 16 21 17 10 7 14 6 4 2 3 4 15 17 14 11 8 6 8 11 14 24 7 7 9 21 23 26 27
7 6 1 4 6 24 8 4 5 3 2 12 14 14 21 15 10 7 14 9 11 6 5 6 10 9 5 6 4 12 16 17 11 7 10 16 29 8 5 7 19 16 23 25
4 2 6 5 2 9 3 3 7 3 2 3 5 5 8 8 11 4 4 10 4 10 7 10 8 9 11 8 10 8 10 10 21 17 14 9 8 6 4 8 10 5 12 20
7 8 9 9 6 7 5 2 5 4 1 2 2 4 4 3 11 8 6 5 3 7 10 7 5 7 9 5 7 12 14 13 11 13 13 19 10 2 12 4 5 1 4 3
8 9 6 5 7 8 6 3 6 5 1 1 3 3 2 2 2 4 3 1 5 6 5 6 4 5 5 8 10 2 9 11 9 12 9 1 1 4 4 3 2 1 2 2
3 9 8 7 4 10 7 3 4 3 2 0 1 2 2 3 2 2 3 1 2 4 2 2 1 5 1 9 9 4 4 3 4 1 1 2 4 2 6 4 2 2 3 4
4 8 8 8 9 12 8 3 3 3 2 2 3 2 5 6 9 4 5 3 2 2 1 2 3 2 2 2 1 0 1 2 3 4 4 4 9 11 8 11 11 11 9 3
6 6 6 7 9 11 7 3 2 2 4 3 3 2 5 9 8 5 5 3 3 1 2 3 3 1 2 2 2 4 5 3 2 0 3 2 6 10 13 11 10 8 7 13
6 6 6 8 12 9 4 4 3 3 2 3 1 3 6 8 7 7 6 2 2 3 2 2 3 2 4 4 4 5 6 7 5 4 7 9 13 11 10 8 10 10 7 4
7 6 7 13 14 6 5 2 3 2 2 3 3 4 5 6 4 3 4 3 1 1 2 3 2 2 4 2 2 7 7 7 8 4 9 4 4 7 14 10 10 10 7 5
7 11 16 17 17 8 6 10 11 3 4 5 3 4 5 9 5 5 3 4 3 3 1 3 2 3 3 6 7 9 8 10 2 6 2 9 11 11 8 8 8 9 6 7
16 17 12 7 7 4 2 7 13 7 7 5 4 4 5 8 3 2 4 2 2 2 1 1 2 4 7 2 3 6 7 3 9 11 11 5 5 7 8 9 7 6 7 5
9 8 6 5 3 12 7 8 7 9 6 5 4 1 4 4 4 4 4 1 2 2 2 3 6 4 2 2 4 5 7 7 6 5 8 7 6 8 9 8 8 6 6 4
5 4 2 2 10 4 6 5 6 4 6 4 2 2 2 3 2 3 1 3 2 3 3 3 3 3 2 5 6 5 5 5 6 6 8 8 9 9 8 9 6 5 4 3
4 6 5 5 8 6 10 2 5 7 1 4 2 3 2 5 2 1 4 3 1 4 1 4 3 2 4 4 6 7 6 6 7 4 7 7 7 6 6 7 5 3 2 1
5 8 9 7 6 13 8 4 6 5 3 3 3 4 0 6 4 3 2 4 2 1 4 3 2 2 4 6 5 7 6 6 7 7 5 6 7 6 4 6 6 4 2 1
8 7 9 6 6 0 5 5 5 6 2 2 2 2 2 2 4 2 2 3 5 3 3 0 2 4 5 5 4 5 11 9 8 8 7 7 7 7 5 5 4 4 4 4
6 6 4 2 3 0 2 1 2 3 2 3 3 3 3 3 3 2 3 7 3 1 2 3 3 5 6 8 9 9 9 9 10 10 9 9 9 7 8 5 4 4 4 4
6 7 5 2 4 4 3 2 3 2 2 1 3 2 5 2 1 4 1 1 3 4 4 4 3 5 7 7 8 9 9 9 10 10 10 8 7 8 7 3 4 5 5 6
6 2 1 4 3 5 4 4 4 1 3 1 3 5 5 2 5 5 3 5 5 5 9 6 5 8 8 8 7 8 8 8 9 9 10 10 6 3 2 7 5 6 6 6
Wind_Direction
208 203 198 188 170 158 147 136 177 311 103 121 179 176 200 216 182 158 196 134 131 171 159 160 215 218 228 164 152 169 186 116 156 206 259 186 167 202 164 145 238 227 153 256
204 202 197 188 172 160 136 150 127 19 47 179 199 257 254 252 175 183 176 200 191 156 163 158 199 195 282 160 169 160 186 219 76 350 0 1 220 205 148 101 77 204 180 257
207 200 197 192 178 167 115 130 141 135 218 135 167 152 211 222 217 205 168 154 105 110 164 244 191 213 146 195 201 241 148 137 168 197 193 133 187 204 195 153 171 191 232 263
211 208 198 197 180 174 142 153 212 188 188 211 185 180 184 196 208 213 175 201 187 166 179 188 184 187 37 8 235 331 151 209 174 224 140 137 187 180 189 205 220 207 258 240
216 209 206 199 184 178 189 162 152 356 191 155 184 199 207 189 201 158 211 212 191 179 218 191 189 155 187 194 45 156 352 247 123 261 130 179 241 230 202 213 223 241 253 264
232 203 213 211 190 179 188 175 132 127 186 162 178 209 207 204 198 223 219 206 189 201 220 225 231 158 159 190 177 184 168 152 109 262 134 133 270 237 215 218 217 217 232 246
260 219 216 218 206 193 183 170 139 179 223 197 211 197 191 209 203 217 210 197 178 215 108 82 71 85 172 195 229 169 153 132 151 250 116 222 249 232 206 215 233 215 249 260
85 358 348 284 203 204 206 165 151 169 230 223 222 219 218 205 220 223 223 213 202 130 91 89 213 199 228 233 227 211 189 176 209 218 210 282 294 233 151 165 256 217 224 247
180 174 212 20 307 218 210 134 111 135 193 222 233 211 203 208 192 216 238 223 146 103 147 179 200 205 172 217 248 220 192 197 201 182 220 224 256 185 163 107 264 158 208 231
158 134 178 163 103 15 125 89 136 127 182 216 180 187 201 190 188 196 155 175 144 147 190 202 206 216 172 195 182 165 178 200 220 223 236 260 252 183 164 153 251 230 199 225
153 114 102 98 98 134 92 176 151 122 191 224 189 156 172 137 195 197 158 112 165 182 204 197 182 211 202 175 189 174 178 177 202 222 233 243 156 79 196 243 343 118 324 275
160 144 126 117 106 75 139 170 146 136 214 302 342 302 291 86 82 185 191 188 156 177 181 188 182 215 169 195 237 14 209 193 187 194 206 13 187 112 265 213 167 263 108 303
82 120 115 106 106 139 96 59 90 129 159 286 273 225 2 106 216 284 157 203 208 161 132 119 298 237 189 198 221 112 306 18 231 144 133 99 90 39 9 338 289 252 231 178
62 99 95 91 89 123 107 107 114 97 83 113 294 359 51 341 348 219 176 147 36 98 138 159 182 214 181 277 225 57 40 124 204 267 71 303 89 53 8 340 349 347 327 248
72 73 98 99 94 109 84 65 33 127 120 178 259 9 4 355 351 21 37 134 165 174 213 196 189 162 152 206 170 189 6 0 199 163 81 334 297 10 8 347 349 344 356 342
88 83 86 94 111 106 77 43 353 344 131 106 25 274 9 344 351 31 37 41 194 210 208 199 194 188 149 215 204 71 25 358 1 328 337 262 274 281 10 336 338 323 334 7
89 95 94 111 87 67 82 101 328 295 61 77 355 358 354 332 329 11 10 346 334 181 208 223 159 182 231 201 151 352 344 320 305 9 334 314 28 328 324 331 328 325 314 331
102 104 106 101 93 68 42 12 8 20 80 48 37 324 29 6 337 339 356 7 355 15 266 22 80 30 4 71 6 351 346 326 99 352 287 259 283 299 325 335 333 332 333 337
100 94 83 57 38 42 97 63 43 51 59 84 59 20 323 349 315 273 332 49 354 287 98 57 52 353 54 290 334 343 339 306 287 307 307 327 347 319 330 333 340 326 321 324
72 46 45 25 27 319 43 10 27 26 10 34 71 324 320 17 339 312 346 61 290 290 268 64 56 79 124 312 292 291 300 306 324 347 340 332 328 327 319 304 294 279 284 303
40 56 84 261 331 51 37 46 55 338 35 17 303 108 291 334 3 289 138 317 302 286 287 98 62 77 338 317 317 295 294 287 280 241 258 256 256 282 289 298 286 275 277 259
85 121 78 31 30 32 69 10 347 45 180 332 42 292 224 296 20 17 294 257 262 257 112 78 69 195 254 302 292 295 299 302 300 253 275 272 266 265 267 279 291 281 289 237
39 48 49 39 321 41 66 3 330 350 334 317 347 326 319 335 29 293 309 270 274 326 40 77 139 212 290 287 289 298 290 289 292 299 288 295 283 284 269 293 298 292 268 227
65 65 35 84 354 137 174 179 201 246 137 353 94 293 98 299 5 269 337 320 31 39 48 156 234 263 280 283 277 303 319 318 304 291 287 295 296 289 272 258 275 272 244 213
79 65 71 73 217 275 219 246 344 275 147 69 20 13 84 316 355 19 341 7 9 136 220 246 277 293 296 308 315 311 308 310 309 309 305 299 300 292 287 267 248 233 244 228
73 64 85 334 57 311 355 26 276 208 102 56 52 85 47 339 125 20 241 108 247 249 230 247 281 276 278 277 291 297 295 293 296 297 298 288 285 283 279 274 249 236 225 232
60 360 10 120 105 172 207 162 234 153 88 76 96 55 225 320 24 335 189 202 231 252 293 285 236 257 269 270 275 280 279 286 288 288 293 286 261 265 261 271 260 222 227 223